SCP
1 1 1 1 1 1 1 1 1 1 1 1 1 1 1 1 1 0 0 0 0 0 0 0 0 0 0 0 0 0 0 0 0 0 0 0 0 0 0 0 0 0 0
1 1 2 2 2 2 1 1 1 1 1 1 1 1 1 1 1 0 0 0 0 0 0 0 0 0 0 0 0 0 0 0 0 0 0 0 0 0 0 0 0 0 0
1 2 2 2 2 2 2 1 1 1 1 1 1 1 1 1 0 0 0 0 0 0 0 0 0 0 0 0 0 0 0 0 0 0 0 0 0 0 0 0 0 0 0
1 2 2 2 2 2 2 1 1 1 1 1 1 1 1 0 0 0 0 0 0 0 0 0 0 0 0 0 0 0 0 0 0 0 0 0 0 0 0 0 0 0 0
1 1 2 2 2 2 2 1 1 1 1 1 1 1 1 0 0 0 0 0 0 0 0 0 0 0 0 0 0 0 0 0 0 0 0 0 0 0 0 0 0 0 0
1 1 2 2 2 2 2 2 2 1 1 1 1 1 1 0 0 0 0 0 0 0 0 0 0 0 0 0 0 0 0 0 0 0 0 0 0 0 0 0 0 0 0
1 1 2 2 2 2 2 2 2 2 1 1 1 1 1 0 0 0 0 0 0 0 0 0 1 1 1 1 0 0 0 0 0 0 0 0 0 0 0 0 0 0 0
1 1 1 2 2 2 2 2 2 2 1 1 1 1 1 0 0 0 0 0 0 1 1 1 1 1 1 1 0 0 0 0 0 0 0 0 0 0 0 0 0 0 0
1 1 1 1 2 2 2 2 2 2 2 1 1 1 1 1 1 1 0 0 1 1 1 1 1 1 1 0 0 0 0 0 0 0 0 0 0 0 0 0 0 0 0
1 2 2 2 2 2 2 2 2 2 2 1 1 1 1 1 1 1 1 1 1 1 1 1 0 0 0 0 0 0 0 0 0 0 0 0 0 0 0 0 0 0 0
1 1 2 2 2 2 2 2 2 2 2 1 1 1 1 1 1 1 1 1 1 1 0 0 0 0 0 0 0 0 0 0 0 0 0 0 0 0 0 0 0 0 0
1 1 2 2 2 2 2 2 2 2 2 2 1 1 1 1 1 1 1 1 1 1 0 0 0 0 0 0 0 0 0 0 0 0 0 0 0 0 0 0 0 0 0
1 1 2 2 2 2 2 2 2 2 2 2 1 1 1 1 1 1 1 1 1 0 0 0 0 0 0 0 0 0 0 0 0 0 0 0 0 0 0 0 0 0 0
1 1 2 2 2 2 3 2 2 2 2 2 2 2 1 1 1 1 1 1 0 0 0 0 0 0 0 0 0 0 0 0 0 0 0 0 0 0 0 0 0 0 0
1 2 2 2 2 3 3 3 3 2 2 2 2 2 2 1 1 1 1 1 0 0 0 0 0 0 0 0 0 0 0 0 0 0 0 0 0 0 0 0 0 0 0
2 2 2 2 2 2 3 3 3 3 3 3 2 2 2 1 1 1 1 1 0 0 0 0 0 0 0 0 0 0 0 0 0 0 0 0 0 0 0 0 0 0 0
2 2 2 2 2 2 3 3 3 3 3 3 2 2 2 1 1 1 1 1 0 0 0 0 0 0 0 0 0 0 0 0 0 0 0 0 0 0 0 0 0 0 0
3 2 2 2 2 2 3 3 3 3 3 3 2 2 1 1 1 1 1 1 1 0 0 0 0 0 0 0 0 0 0 0 0 0 0 0 0 0 0 0 0 0 0
3 3 2 2 2 3 3 3 3 3 3 2 2 2 1 1 1 1 1 1 1 0 0 0 0 0 0 0 0 0 0 0 0 0 0 0 0 0 0 0 0 0 0
3 3 3 3 3 3 3 3 3 2 2 2 2 1 1 1 1 1 1 1 1 0 0 0 0 0 0 0 0 0 0 0 0 0 0 0 0 0 0 0 0 0 0
4 4 3 3 3 3 3 3 2 2 2 1 1 1 1 1 1 1 1 1 1 0 0 0 0 0 0 0 0 0 0 0 0 0 0 0 0 0 0 0 0 0 0
4 4 3 3 3 3 3 2 2 2 1 1 1 1 1 1 1 1 1 1 1 0 0 0 0 0 0 0 0 0 0 0 0 0 0 0 0 0 0 0 0 0 0
4 3 3 3 2 2 2 2 2 1 1 1 1 0 0 0 0 0 0 1 1 1 0 0 0 0 0 0 0 0 0 0 0 0 0 0 0 0 0 0 0 0 0
3 3 3 3 2 2 2 1 1 1 1 1 0 0 0 0 0 0 0 1 1 1 0 0 0 0 0 0 0 0 0 0 0 0 0 0 0 0 0 0 0 0 0
3 4 3 3 2 2 1 1 1 1 1 0 0 0 0 0 0 0 0 0 0 0 0 0 0 0 0 0 0 0 0 0 0 0 0 0 0 0 0 0 0 0 -0
4 4 4 3 2 2 1 1 1 1 1 0 0 0 0 0 0 0 0 0 0 0 0 0 0 0 0 0 0 0 0 0 0 0 0 0 0 0 0 0 0 0 -0
Wind_Speed
7 8 8 8 8 6 5 5 4 4 3 2 2 1 1 1 0 1 2 2 2 2 2 1 1 1 1 1 1 1 1 1 1 1 1 2 1 1 2 2 2 4 4
6 8 7 7 7 7 6 5 5 4 3 2 2 2 2 1 1 1 1 2 2 2 2 2 1 1 1 1 1 1 1 1 1 2 1 1 3 2 1 1 2 2 2
10 9 9 8 7 7 7 6 5 4 4 3 2 1 1 1 1 0 0 1 2 2 1 2 2 2 2 2 2 2 3 2 1 2 3 2 2 1 2 1 0 1 1
9 9 9 9 8 7 6 5 5 4 4 3 3 3 2 2 1 1 1 1 1 1 2 2 2 2 1 2 2 2 2 3 2 1 1 2 4 3 1 2 1 1 1
10 10 10 10 8 8 7 5 5 4 4 4 4 3 2 1 1 1 1 0 1 1 1 1 1 1 1 2 2 1 1 2 2 2 1 1 1 2 2 1 1 1 0
10 10 8 8 7 7 6 6 5 4 4 4 4 4 4 3 2 1 1 0 0 1 1 0 0 1 1 1 2 1 2 2 2 2 2 2 2 2 3 3 2 1 1
10 10 9 9 9 9 8 7 6 5 4 4 4 4 4 3 3 2 1 1 0 1 1 0 0 0 1 1 0 1 1 1 1 2 2 2 2 2 3 3 2 1 0
9 10 11 11 10 10 9 8 7 6 5 5 4 3 3 2 2 1 1 1 1 1 0 1 1 1 1 1 1 0 0 0 0 1 1 1 1 2 3 3 3 1 0
11 10 10 10 10 10 10 10 9 7 6 5 4 3 3 3 2 2 1 1 0 0 1 1 2 2 2 2 2 2 1 1 1 1 1 0 0 0 1 2 3 4 2
9 10 10 10 9 9 8 8 8 8 6 6 5 4 3 3 2 2 2 1 1 1 2 2 2 2 3 3 3 2 2 2 2 1 2 1 1 1 0 1 1 2 3
10 9 9 9 9 8 8 8 7 7 6 6 5 4 3 3 2 2 2 2 1 2 2 2 3 3 3 3 3 2 2 3 2 2 2 2 2 1 1 1 1 1 2
9 8 8 8 8 8 8 8 7 7 7 6 5 4 4 3 3 2 2 2 2 2 3 3 3 3 3 2 3 2 2 3 3 3 3 3 2 2 2 1 2 1 2
8 7 7 8 8 8 7 7 7 7 6 6 5 5 4 4 3 3 2 2 3 3 3 3 3 3 2 2 2 2 2 3 3 3 3 2 3 3 2 2 2 2 2
9 8 7 7 7 7 7 7 7 6 6 6 6 5 4 4 4 3 3 3 3 3 3 3 3 2 2 2 3 3 3 3 4 4 3 3 3 3 2 3 3 3 4
9 9 8 7 7 7 6 6 6 6 6 7 6 5 4 4 4 4 4 4 3 3 3 3 3 3 3 3 3 3 4 4 4 4 4 4 6 6 4 3 3 3 3
10 9 9 8 8 7 7 7 6 6 7 7 6 5 5 5 4 4 4 4 3 3 4 4 4 4 3 5 6 5 4 4 4 3 3 4 6 7 8 7 6 5 5
10 9 9 8 8 8 7 7 6 6 7 7 6 6 6 5 5 5 4 4 4 4 5 4 4 4 4 6 6 7 4 4 3 3 3 3 4 5 4 6 8 6 6
11 10 9 8 7 7 7 7 6 6 6 6 6 5 6 5 5 5 5 4 3 4 4 4 4 4 4 6 6 7 5 4 3 3 3 3 3 3 4 5 5 4 4
10 9 9 8 8 8 8 8 7 6 6 6 5 5 6 6 5 5 4 4 4 4 3 3 4 4 3 5 6 6 4 4 4 4 4 4 3 5 6 5 4 4 3
7 7 8 8 8 8 8 8 7 6 6 6 5 5 5 5 5 5 4 3 4 4 4 4 3 3 3 4 6 6 3 4 3 3 3 4 4 4 5 4 4 3 2
8 8 9 8 7 8 9 9 7 6 6 6 6 5 5 5 5 4 4 4 4 4 4 4 3 3 3 4 5 5 3 3 3 2 1 1 3 4 4 3 2 2 1
9 9 9 7 6 8 9 8 6 5 6 6 6 5 5 4 4 4 4 4 5 5 4 3 2 1 1 2 3 5 5 4 3 2 1 0 2 3 3 2 2 3 3
8 8 9 7 5 6 8 8 6 6 6 6 6 5 4 3 4 4 4 4 4 4 3 3 2 1 1 1 3 4 4 5 3 1 1 1 1 2 2 2 3 3 2
8 8 9 8 5 5 6 7 7 7 7 6 5 5 4 3 3 2 2 3 3 4 4 4 3 2 1 1 1 1 1 2 2 1 1 1 2 2 2 2 2 1 1
6 7 8 8 7 6 6 6 6 7 7 6 5 5 4 4 3 2 2 2 2 4 5 4 4 5 3 4 5 4 2 2 2 2 2 2 1 1 1 1 1 1 1
6 6 7 7 6 6 6 5 6 7 7 5 5 4 4 3 3 3 2 4 1 2 5 6 6 3 4 6 6 5 5 4 5 4 1 1 1 1 1 1 1 0 1
Wind_Direction
174 163 158 152 147 148 155 158 152 159 148 140 146 148 180 182 174 192 183 182 181 177 165 167 189 181 175 205 187 149 154 199 142 97 2 333 289 220 222 216 200 201 199
164 165 160 159 160 162 163 160 161 162 161 162 160 160 153 176 193 215 192 201 194 192 182 181 197 201 193 217 198 154 158 227 161 140 120 350 343 340 258 211 190 195 190
174 173 170 171 165 167 169 166 167 163 169 163 132 104 76 35 36 20 255 241 216 206 196 201 196 204 191 211 221 191 177 209 240 171 154 162 221 299 344 355 149 160 166
174 173 169 169 172 174 167 160 161 160 163 154 141 146 152 165 211 204 203 233 216 216 211 212 200 202 199 209 229 200 182 175 212 234 194 180 167 161 287 336 352 111 165
175 175 175 173 171 169 165 160 154 157 159 151 151 145 146 167 166 132 137 310 311 272 245 225 209 205 203 212 224 209 192 181 184 193 195 168 169 159 162 230 305 12 331
175 176 174 164 164 166 163 158 153 158 158 152 152 151 151 149 134 129 157 237 322 320 302 177 211 232 214 218 221 205 201 208 196 193 182 172 176 187 170 190 211 244 311
171 171 170 169 170 170 169 165 162 165 164 157 158 162 161 150 149 157 165 167 324 326 307 28 344 308 262 248 224 168 213 208 192 203 203 184 196 178 163 160 184 196 271
171 176 178 176 175 173 170 168 168 169 167 164 166 161 153 144 148 158 157 168 197 221 328 69 50 33 17 33 50 62 118 109 174 215 186 174 218 180 168 166 160 158 299
175 178 179 177 174 173 174 172 170 168 169 169 160 153 151 146 146 145 139 144 140 122 80 72 66 55 56 60 70 58 47 69 50 28 52 71 305 224 175 165 164 161 173
175 176 176 176 173 173 172 169 169 169 171 172 171 160 157 156 153 130 119 115 88 75 83 72 72 65 61 64 73 68 52 67 40 37 46 32 349 0 57 154 161 156 162
175 175 175 173 166 163 165 167 169 167 168 168 164 155 158 159 147 135 131 127 107 99 92 93 91 79 68 72 81 76 73 68 38 23 36 14 12 28 23 58 92 114 132
170 166 163 158 160 165 165 169 170 171 173 167 158 157 155 148 141 138 136 126 112 103 108 103 91 86 77 73 86 82 71 69 51 29 32 12 28 39 34 59 78 96 118
154 148 149 154 162 166 165 166 166 167 164 156 150 150 151 145 144 143 136 118 107 104 103 103 98 91 82 78 78 93 84 75 64 52 48 26 45 45 43 62 74 81 90
154 151 153 160 162 163 164 162 165 161 153 146 146 151 156 153 150 142 128 114 110 107 107 107 108 101 88 80 80 86 82 74 65 59 58 56 63 64 64 74 76 92 93
158 160 160 158 154 150 155 156 153 154 148 141 142 147 148 144 136 129 119 113 110 108 105 99 85 82 87 82 89 92 91 81 70 55 51 62 73 72 76 91 100 105 105
163 165 160 156 156 154 155 154 153 150 143 143 145 143 136 132 127 122 118 112 103 95 95 92 88 79 77 82 90 97 89 83 78 68 55 64 61 64 67 79 89 107 123
167 165 164 165 163 159 155 154 153 144 139 143 145 145 142 136 137 131 118 115 112 102 96 95 93 87 77 85 91 94 98 93 88 81 72 70 64 65 68 67 64 66 86
168 171 168 168 163 151 139 134 134 134 136 139 143 144 143 141 138 130 129 126 120 117 112 107 105 97 78 81 91 99 93 90 82 78 85 83 62 64 83 79 63 51 47
168 169 168 159 148 143 137 131 127 129 130 135 139 144 143 144 142 142 143 138 127 120 117 121 115 103 81 84 95 100 95 87 73 69 74 86 80 71 86 87 76 53 28
151 154 148 139 140 142 136 130 134 136 139 139 136 134 136 143 147 148 141 131 128 127 121 108 109 110 102 95 102 107 107 100 86 64 60 72 84 77 87 98 98 83 35
130 130 130 134 140 141 138 136 141 151 148 135 129 127 130 136 139 137 137 132 127 123 117 112 106 108 110 109 111 117 115 127 121 106 69 31 73 82 85 101 119 145 143
119 121 122 123 132 136 138 140 148 146 131 129 127 126 130 137 131 129 133 132 136 133 130 120 104 83 94 109 124 126 125 132 129 144 175 204 83 78 74 79 86 98 102
122 120 120 118 123 136 139 141 146 136 131 129 128 127 124 117 125 137 147 144 147 150 151 149 149 144 76 85 114 130 133 133 131 163 175 142 85 64 52 44 75 95 101
126 123 119 120 123 132 134 141 145 141 138 138 134 131 130 123 117 124 142 154 166 168 167 169 173 169 156 154 122 120 119 114 96 79 52 61 59 52 30 26 52 77 130
132 131 136 138 145 143 139 144 145 141 139 141 142 141 142 143 130 113 113 157 183 187 176 182 178 171 183 212 191 166 168 173 169 119 68 52 46 38 24 10 5 26 67
138 137 139 141 145 145 147 150 150 149 147 147 152 155 153 147 142 134 93 43 86 162 173 174 170 182 188 179 176 172 169 166 149 121 112 153 186 188 193 196 245 271 236